SCP
0 0 0 0 0 0 0 0 0 0 -0 -0 0 0 0 0 0 -0 0 -0 -0 -0 -0 -0 -1 -0 0 0 0 0 0 0 0 0 0 0 0 -0 -0 -0 -0 0 0 0
0 0 0 0 -0 -0 0 0 0 0 -0 -0 0 0 0 0 0 0 0 0 -0 -0 -0 -1 -1 -1 -0 0 0 0 0 0 0 0 0 0 0 0 0 -0 0 0 0 0
-0 0 0 0 0 -0 -0 0 0 0 0 0 0 -0 -0 0 0 0 0 0 0 -0 -0 -1 -0 -0 -0 -0 0 0 0 0 0 0 0 0 0 0 0 0 0 0 0 0
0 0 0 0 0 0 0 0 1 1 0 0 -0 -0 0 0 0 0 1 -0 -0 -0 -0 -0 0 -0 -0 -0 -0 0 0 0 0 0 0 0 0 0 0 0 0 0 0 0
0 0 0 0 0 0 0 -0 0 1 1 1 0 0 0 0 0 0 1 0 0 0 0 0 0 0 -0 0 0 0 0 0 0 0 -0 -0 -0 0 0 0 0 0 0 0
0 0 0 0 0 1 0 -0 0 1 1 1 1 0 0 0 0 0 1 1 1 0 1 0 0 0 0 0 0 0 0 0 0 -0 -0 -0 -0 0 0 0 0 0 0 0
0 0 0 0 0 1 0 0 0 0 0 0 0 0 0 0 0 0 0 1 0 -0 1 0 1 0 0 0 0 0 -0 -0 0 -0 -0 0 0 0 0 0 0 0 0 0
0 0 0 0 0 0 0 0 -0 0 0 0 0 0 0 0 0 0 0 1 1 1 0 1 1 0 0 0 0 0 0 0 0 0 0 0 0 0 0 0 0 0 0 0
0 0 0 0 0 0 0 0 0 0 0 0 0 0 0 0 0 0 1 1 2 1 1 1 1 0 0 0 0 0 0 0 0 0 0 0 0 0 0 0 0 0 0 0
0 0 0 0 0 0 0 0 0 0 0 0 0 0 0 0 -0 -0 0 0 1 2 2 2 2 1 1 1 1 1 0 0 0 0 0 0 0 0 0 0 0 0 0 0
0 0 0 0 0 -0 0 0 0 0 0 0 0 0 0 0 -0 -0 0 0 0 1 2 2 2 1 1 1 0 0 0 0 0 0 0 0 0 0 0 0 0 0 0 0
0 0 0 -0 0 0 0 -0 -0 0 0 0 0 0 0 0 0 -0 0 0 0 1 1 2 2 1 1 0 0 0 0 0 0 0 0 0 0 0 0 0 0 0 0 0
0 0 0 0 0 0 0 -0 0 0 0 0 0 0 0 0 0 0 0 -0 0 0 2 2 2 1 1 0 0 0 0 0 0 0 0 0 0 0 0 0 0 0 0 0
-0 0 0 0 0 0 0 -0 0 0 0 0 0 0 0 0 0 0 0 -0 0 0 0 1 1 1 1 1 0 0 0 0 0 -0 0 0 0 0 0 0 0 0 0 0
0 0 0 0 0 0 0 0 0 0 0 0 0 0 0 0 0 0 0 0 0 0 1 0 0 0 0 0 0 0 0 -0 0 0 0 -0 -0 0 0 0 0 0 0 0
-0 0 0 0 0 0 0 0 0 0 0 0 0 0 0 0 0 0 0 0 0 0 0 0 -0 -0 0 0 0 0 0 0 0 0 0 0 0 0 -0 0 0 0 0 0
-0 -0 0 0 0 -0 0 0 0 0 0 0 0 0 0 0 0 0 0 0 0 0 0 -0 0 0 -0 -0 0 0 0 0 0 0 0 0 -0 0 0 0 0 0 0 0
-0 -0 -0 0 0 0 0 0 0 0 0 0 0 0 0 0 0 0 0 0 0 0 0 0 0 0 -0 0 0 0 0 0 0 0 0 0 0 0 0 0 0 0 0 0
0 -0 0 0 0 0 0 0 0 0 0 0 0 0 0 0 0 0 0 0 0 0 0 0 0 0 -0 0 0 0 0 0 0 0 0 0 0 0 0 0 0 0 0 0
0 0 0 0 0 0 0 0 0 0 0 0 0 0 0 0 0 0 0 0 0 -0 0 0 0 -0 -0 0 0 0 0 0 0 0 0 0 0 0 0 0 0 0 0 0
0 0 0 0 0 0 0 0 -0 -0 0 0 0 0 0 0 0 0 0 0 -0 0 0 -0 0 0 0 0 0 0 0 0 0 0 0 0 0 0 0 0 0 0 0 0
0 0 0 0 0 0 0 0 0 0 0 0 -0 0 0 0 0 0 0 -0 0 0 0 0 0 -0 -0 0 0 0 0 0 0 0 0 0 0 0 0 0 0 0 0 0
-0 -0 0 0 0 0 0 0 0 0 0 0 0 0 0 0 0 0 0 0 0 0 0 0 -0 -0 -0 0 0 0 0 0 0 0 0 0 0 0 0 0 0 0 0 0
-0 -0 -0 0 0 0 0 0 0 0 0 0 0 0 0 0 0 0 0 0 0 0 0 -0 -0 -0 0 -0 0 0 0 0 0 0 0 0 0 0 0 0 0 0 0 0
0 -0 0 -0 0 0 0 0 0 0 0 0 0 0 0 0 0 0 0 0 0 0 0 -0 -0 -0 0 0 0 0 0 0 0 0 0 0 0 0 0 0 0 0 0 0
-0 0 0 0 0 0 -0 -0 0 0 0 0 0 0 0 0 0 0 0 -0 -0 0 0 0 0 0 0 0 0 0 0 0 0 0 0 0 0 0 0 0 0 0 0 0
0 0 0 0 0 0 0 0 0 0 0 0 0 0 0 0 0 0 0 0 0 0 0 -0 0 0 0 0 0 0 0 0 0 0 -0 0 0 0 0 0 0 0 0 0
Wind_Speed_500mb
10 17 15 12 14 18 12 12 6 20 12 18 16 29 48 65 45 36 42 32 56 89 91 91 94 93 82 72 67 60 52 48 46 37 37 32 29 34 35 36 39 41 34 36
11 12 16 32 10 15 16 17 9 12 11 4 31 27 30 64 57 52 38 38 53 80 91 92 97 86 76 75 69 62 57 50 44 38 35 32 34 35 35 37 38 35 34 32
10 6 20 23 2 8 7 14 13 13 23 18 9 19 50 50 52 42 38 51 63 73 88 94 90 80 74 73 68 64 60 53 49 40 40 40 36 32 36 37 35 33 36 36
10 1 14 9 4 4 8 10 27 26 29 16 14 18 56 52 59 55 56 52 64 69 77 89 87 76 63 68 67 62 58 57 51 45 47 39 36 33 31 35 33 31 28 25
7 10 22 28 14 13 5 7 27 24 33 24 17 17 15 31 45 49 49 46 41 47 55 73 76 82 50 53 59 59 58 59 56 48 43 40 40 34 30 28 27 25 26 27
5 8 12 7 4 14 7 9 31 38 29 34 48 6 6 21 23 46 54 47 46 41 42 62 67 63 53 60 62 58 54 52 52 48 40 36 33 31 27 25 23 21 18 17
10 10 9 10 27 15 4 11 23 35 41 45 18 40 18 37 41 39 52 52 54 46 47 57 54 54 58 58 52 47 44 47 48 42 34 29 25 26 25 23 20 16 10 9
6 7 7 40 12 1 2 7 8 26 41 51 53 30 33 38 40 43 47 55 66 59 57 46 44 45 43 46 42 39 36 37 37 36 34 31 26 22 18 13 12 10 9 8
3 8 16 26 11 10 6 10 8 21 33 48 61 13 32 27 34 51 68 62 66 61 55 48 47 50 46 39 42 38 37 36 36 37 35 30 25 25 18 15 12 13 19 24
5 9 22 41 33 27 25 23 12 13 19 37 49 35 24 47 66 40 40 45 62 65 60 54 52 63 46 40 44 42 40 42 40 37 33 31 26 23 21 19 20 21 19 15
10 24 51 51 50 35 29 33 33 21 13 18 34 42 38 30 54 54 30 38 51 63 57 46 55 54 47 46 46 45 42 38 35 33 33 27 24 17 18 18 24 26 27 27
12 19 17 32 34 38 34 39 31 20 16 20 18 47 42 42 69 64 48 52 29 61 60 57 53 49 51 49 44 41 41 41 40 37 29 23 23 25 24 27 30 33 34 33
25 46 52 51 47 39 40 42 40 31 25 4 6 35 45 43 44 68 39 38 29 45 51 54 48 52 51 47 39 38 40 40 34 28 26 28 25 30 33 27 25 27 29 32
56 44 45 47 38 38 40 29 29 28 34 33 20 39 38 32 32 41 54 49 34 27 49 48 54 55 51 45 39 41 38 32 30 30 27 25 20 20 25 29 30 30 31 33
32 39 49 51 54 54 51 44 37 29 16 35 36 37 33 32 32 29 45 54 48 43 46 52 31 50 53 44 43 44 42 39 32 30 24 25 21 20 19 20 21 25 32 33
60 39 29 31 41 30 52 51 40 30 28 13 24 38 19 21 28 23 27 39 49 48 40 55 95 43 53 51 49 50 45 32 27 25 23 22 21 23 23 26 27 33 32 32
52 53 45 31 27 25 23 56 42 18 24 18 25 16 20 28 19 30 28 42 53 58 56 49 40 68 44 50 56 55 45 38 30 18 14 21 22 24 26 31 34 33 35 35
45 45 40 32 31 29 19 12 36 18 19 23 18 18 15 20 19 28 33 35 47 48 57 43 66 104 76 51 62 56 50 43 33 22 21 22 22 25 28 30 32 32 35 30
43 41 33 35 31 23 19 10 14 18 24 17 8 19 15 16 20 45 53 35 41 42 54 54 32 38 70 63 64 58 51 43 35 32 29 24 24 25 30 26 28 33 30 23
41 37 30 32 18 18 22 23 24 20 21 20 14 21 18 16 19 48 68 38 33 36 49 69 57 48 47 56 64 56 48 43 42 41 29 25 25 25 26 29 27 33 29 19
23 24 24 26 28 24 18 23 28 23 24 17 23 24 20 18 18 28 75 61 48 48 53 80 77 50 33 52 63 53 46 47 43 38 32 28 29 28 31 31 31 33 19 17
23 19 19 17 22 31 27 22 23 20 35 30 29 24 21 23 22 35 52 75 49 55 67 68 57 97 69 66 61 58 50 47 42 39 37 34 29 30 31 32 30 31 19 18
22 23 27 26 26 26 23 25 22 26 30 32 31 28 23 14 12 40 47 39 46 72 83 73 94 84 64 58 51 53 45 47 44 38 30 26 30 32 31 31 33 26 19 21
24 17 19 15 18 23 21 19 17 15 16 16 19 18 18 16 10 19 35 36 34 58 90 76 95 74 60 47 45 50 41 35 31 23 26 30 28 32 35 36 27 21 24 28
34 27 25 19 13 7 8 7 12 17 15 21 23 21 29 17 13 11 19 31 42 33 46 61 76 57 52 46 42 40 35 28 27 27 23 25 35 41 38 29 17 20 24 21
32 24 17 16 16 8 5 6 1 7 14 17 18 17 19 19 20 16 26 39 43 27 26 40 57 37 38 39 36 38 35 29 21 12 18 26 26 23 18 15 17 18 18 21
31 37 30 37 39 19 12 14 10 16 7 10 13 15 14 12 13 16 41 49 35 32 29 37 55 54 50 44 36 41 37 22 10 10 19 8 12 10 8 10 13 13 11 15
Wind_Direction_500mb
284 277 325 327 344 332 316 237 180 283 201 267 245 201 201 193 200 203 191 199 187 196 192 197 206 207 206 207 204 206 208 210 207 211 208 210 219 223 228 230 237 238 241 240
305 308 329 313 278 265 274 287 286 307 291 294 332 241 199 198 193 193 200 196 189 192 191 197 205 204 208 208 210 210 213 214 212 214 213 217 226 234 235 235 235 233 238 245
258 344 330 297 151 92 347 21 332 8 295 292 282 195 226 205 197 192 192 188 185 194 199 201 203 200 208 214 215 215 216 217 220 220 222 228 227 242 238 247 247 245 247 255
254 204 245 254 305 343 4 2 8 340 335 307 282 213 217 208 186 185 173 177 190 195 202 203 198 199 210 217 215 217 221 220 223 221 224 225 236 244 244 242 243 244 246 254
206 204 272 290 310 309 43 17 12 353 354 337 45 98 123 188 188 171 168 177 181 191 200 206 201 203 227 216 218 223 219 222 228 227 224 236 241 237 238 230 231 244 253 253
192 209 244 336 60 311 199 271 351 355 357 359 325 85 250 239 176 177 169 178 180 187 188 204 199 206 211 214 218 224 224 223 227 231 240 243 237 238 232 239 249 249 246 254
249 242 268 357 310 340 179 283 338 357 348 347 346 302 219 200 198 195 182 185 185 194 187 189 195 198 202 210 215 221 225 225 225 232 232 232 230 234 239 244 239 250 247 261
325 226 280 353 323 60 58 309 7 11 354 345 344 301 187 205 207 189 198 193 184 189 185 187 192 192 200 206 208 204 206 207 217 220 221 225 231 231 226 246 243 228 215 227
219 253 292 314 262 241 264 292 302 3 356 358 355 333 199 232 206 191 190 185 187 184 188 188 198 203 202 204 194 196 202 212 213 214 221 224 226 215 229 243 232 218 244 259
356 305 276 293 294 255 253 267 263 339 349 357 344 342 197 225 259 224 190 188 188 188 191 192 204 206 208 205 205 204 207 204 207 213 218 232 224 227 234 227 255 270 276 284
250 263 277 288 262 262 249 250 261 253 281 317 344 331 313 262 250 258 202 170 181 188 193 196 190 197 202 203 202 201 201 205 211 220 221 215 214 227 253 271 264 269 278 284
228 279 286 282 306 273 259 261 255 240 244 230 333 325 312 250 251 245 238 215 194 183 182 189 190 199 196 194 196 201 203 210 204 197 200 210 233 246 252 260 259 263 272 281
243 284 290 294 286 270 248 254 271 236 254 235 283 323 303 269 251 233 241 200 190 177 195 199 199 196 197 193 196 207 205 200 198 203 215 238 236 235 250 257 253 257 265 273
279 271 276 274 260 279 272 276 278 286 275 251 222 284 302 264 272 249 236 221 236 218 205 194 207 202 202 198 203 209 204 204 205 204 215 235 240 246 265 282 286 282 283 285
324 287 274 288 292 276 276 264 276 302 293 266 277 296 295 295 302 261 237 237 235 237 218 198 214 212 205 208 206 205 204 200 198 205 221 235 240 252 266 272 280 272 278 290
327 332 328 323 329 300 264 245 250 282 309 259 303 319 301 319 300 278 223 217 205 194 194 234 235 260 206 211 205 202 198 197 205 217 221 236 251 262 262 269 277 272 278 292
325 332 330 307 328 353 265 251 250 284 311 273 312 299 299 318 297 239 233 215 210 204 189 211 236 238 218 217 214 203 199 198 196 200 233 237 242 254 267 278 285 286 290 296
304 294 289 289 312 327 344 302 243 277 285 292 283 244 273 288 267 201 170 168 193 210 223 246 209 218 242 223 225 205 201 198 197 207 223 230 246 260 274 287 294 298 302 303
289 278 272 269 286 302 297 298 239 271 268 280 295 257 286 294 239 214 202 217 236 236 222 193 177 218 252 224 224 205 203 203 205 216 231 240 254 276 288 284 296 306 300 291
279 271 264 259 278 288 290 266 267 264 252 264 258 262 301 294 239 215 209 207 178 156 158 198 210 291 229 208 217 207 206 214 214 222 230 244 254 279 293 288 288 309 298 278
289 277 266 260 268 267 264 279 281 283 244 247 253 245 266 287 247 206 196 200 188 191 197 195 208 211 226 210 208 210 217 219 228 231 232 240 254 279 289 281 287 310 279 254
322 301 277 271 277 260 255 271 271 247 249 266 250 236 253 270 239 211 203 205 201 195 199 184 197 193 203 202 211 212 218 223 225 236 236 234 253 274 286 279 286 305 269 250
324 290 271 259 252 247 263 265 264 253 251 248 244 248 251 283 266 206 203 213 204 185 189 181 175 192 206 202 210 218 220 229 237 228 215 241 264 274 276 280 292 288 274 257
353 328 288 259 245 244 271 279 269 243 240 221 221 237 255 263 252 222 216 221 205 199 203 201 195 208 206 206 211 215 221 204 208 227 257 274 281 280 279 285 280 264 252 264
17 37 55 69 98 131 257 249 218 224 219 230 238 250 244 242 248 242 207 204 179 180 194 200 199 212 212 196 193 184 202 230 253 260 272 286 286 283 283 280 261 259 261 243
15 37 63 68 75 90 69 53 172 255 263 225 224 230 224 243 244 227 188 165 181 191 211 213 191 182 199 207 209 209 215 220 214 259 308 305 293 282 274 258 268 293 257 234
40 47 73 74 57 68 103 101 91 137 128 184 205 183 158 169 194 189 166 183 188 196 203 184 188 197 210 219 199 200 193 203 243 316 358 12 31 6 283 259 243 261 254 218
Wind_Speed_850mb
10 17 15 12 14 18 12 12 6 20 12 18 16 29 48 65 45 36 42 32 56 89 91 91 94 93 82 72 67 60 52 48 46 37 37 32 29 34 35 36 39 41 34 36
11 12 16 32 10 15 16 17 9 12 11 4 31 27 30 64 57 52 38 38 53 80 91 92 97 86 76 75 69 62 57 50 44 38 35 32 34 35 35 37 38 35 34 32
10 6 20 23 2 8 7 14 13 13 23 18 9 19 50 50 52 42 38 51 63 73 88 94 90 80 74 73 68 64 60 53 49 40 40 40 36 32 36 37 35 33 36 36
10 1 14 9 4 4 8 10 27 26 29 16 14 18 56 52 59 55 56 52 64 69 77 89 87 76 63 68 67 62 58 57 51 45 47 39 36 33 31 35 33 31 28 25
7 10 22 28 14 13 5 7 27 24 33 24 17 17 15 31 45 49 49 46 41 47 55 73 76 82 50 53 59 59 58 59 56 48 43 40 40 34 30 28 27 25 26 27
5 8 12 7 4 14 7 9 31 38 29 34 48 6 6 21 23 46 54 47 46 41 42 62 67 63 53 60 62 58 54 52 52 48 40 36 33 31 27 25 23 21 18 17
10 10 9 10 27 15 4 11 23 35 41 45 18 40 18 37 41 39 52 52 54 46 47 57 54 54 58 58 52 47 44 47 48 42 34 29 25 26 25 23 20 16 10 9
6 7 7 40 12 1 2 7 8 26 41 51 53 30 33 38 40 43 47 55 66 59 57 46 44 45 43 46 42 39 36 37 37 36 34 31 26 22 18 13 12 10 9 8
3 8 16 26 11 10 6 10 8 21 33 48 61 13 32 27 34 51 68 62 66 61 55 48 47 50 46 39 42 38 37 36 36 37 35 30 25 25 18 15 12 13 19 24
5 9 22 41 33 27 25 23 12 13 19 37 49 35 24 47 66 40 40 45 62 65 60 54 52 63 46 40 44 42 40 42 40 37 33 31 26 23 21 19 20 21 19 15
10 24 51 51 50 35 29 33 33 21 13 18 34 42 38 30 54 54 30 38 51 63 57 46 55 54 47 46 46 45 42 38 35 33 33 27 24 17 18 18 24 26 27 27
12 19 17 32 34 38 34 39 31 20 16 20 18 47 42 42 69 64 48 52 29 61 60 57 53 49 51 49 44 41 41 41 40 37 29 23 23 25 24 27 30 33 34 33
25 46 52 51 47 39 40 42 40 31 25 4 6 35 45 43 44 68 39 38 29 45 51 54 48 52 51 47 39 38 40 40 34 28 26 28 25 30 33 27 25 27 29 32
56 44 45 47 38 38 40 29 29 28 34 33 20 39 38 32 32 41 54 49 34 27 49 48 54 55 51 45 39 41 38 32 30 30 27 25 20 20 25 29 30 30 31 33
32 39 49 51 54 54 51 44 37 29 16 35 36 37 33 32 32 29 45 54 48 43 46 52 31 50 53 44 43 44 42 39 32 30 24 25 21 20 19 20 21 25 32 33
60 39 29 31 41 30 52 51 40 30 28 13 24 38 19 21 28 23 27 39 49 48 40 55 95 43 53 51 49 50 45 32 27 25 23 22 21 23 23 26 27 33 32 32
52 53 45 31 27 25 23 56 42 18 24 18 25 16 20 28 19 30 28 42 53 58 56 49 40 68 44 50 56 55 45 38 30 18 14 21 22 24 26 31 34 33 35 35
45 45 40 32 31 29 19 12 36 18 19 23 18 18 15 20 19 28 33 35 47 48 57 43 66 104 76 51 62 56 50 43 33 22 21 22 22 25 28 30 32 32 35 30
43 41 33 35 31 23 19 10 14 18 24 17 8 19 15 16 20 45 53 35 41 42 54 54 32 38 70 63 64 58 51 43 35 32 29 24 24 25 30 26 28 33 30 23
41 37 30 32 18 18 22 23 24 20 21 20 14 21 18 16 19 48 68 38 33 36 49 69 57 48 47 56 64 56 48 43 42 41 29 25 25 25 26 29 27 33 29 19
23 24 24 26 28 24 18 23 28 23 24 17 23 24 20 18 18 28 75 61 48 48 53 80 77 50 33 52 63 53 46 47 43 38 32 28 29 28 31 31 31 33 19 17
23 19 19 17 22 31 27 22 23 20 35 30 29 24 21 23 22 35 52 75 49 55 67 68 57 97 69 66 61 58 50 47 42 39 37 34 29 30 31 32 30 31 19 18
22 23 27 26 26 26 23 25 22 26 30 32 31 28 23 14 12 40 47 39 46 72 83 73 94 84 64 58 51 53 45 47 44 38 30 26 30 32 31 31 33 26 19 21
24 17 19 15 18 23 21 19 17 15 16 16 19 18 18 16 10 19 35 36 34 58 90 76 95 74 60 47 45 50 41 35 31 23 26 30 28 32 35 36 27 21 24 28
34 27 25 19 13 7 8 7 12 17 15 21 23 21 29 17 13 11 19 31 42 33 46 61 76 57 52 46 42 40 35 28 27 27 23 25 35 41 38 29 17 20 24 21
32 24 17 16 16 8 5 6 1 7 14 17 18 17 19 19 20 16 26 39 43 27 26 40 57 37 38 39 36 38 35 29 21 12 18 26 26 23 18 15 17 18 18 21
31 37 30 37 39 19 12 14 10 16 7 10 13 15 14 12 13 16 41 49 35 32 29 37 55 54 50 44 36 41 37 22 10 10 19 8 12 10 8 10 13 13 11 15
Wind_Direction_850mb
284 277 325 327 344 332 316 237 180 283 201 267 245 201 201 193 200 203 191 199 187 196 192 197 206 207 206 207 204 206 208 210 207 211 208 210 219 223 228 230 237 238 241 240
305 308 329 313 278 265 274 287 286 307 291 294 332 241 199 198 193 193 200 196 189 192 191 197 205 204 208 208 210 210 213 214 212 214 213 217 226 234 235 235 235 233 238 245
258 344 330 297 151 92 347 21 332 8 295 292 282 195 226 205 197 192 192 188 185 194 199 201 203 200 208 214 215 215 216 217 220 220 222 228 227 242 238 247 247 245 247 255
254 204 245 254 305 343 4 2 8 340 335 307 282 213 217 208 186 185 173 177 190 195 202 203 198 199 210 217 215 217 221 220 223 221 224 225 236 244 244 242 243 244 246 254
206 204 272 290 310 309 43 17 12 353 354 337 45 98 123 188 188 171 168 177 181 191 200 206 201 203 227 216 218 223 219 222 228 227 224 236 241 237 238 230 231 244 253 253
192 209 244 336 60 311 199 271 351 355 357 359 325 85 250 239 176 177 169 178 180 187 188 204 199 206 211 214 218 224 224 223 227 231 240 243 237 238 232 239 249 249 246 254
249 242 268 357 310 340 179 283 338 357 348 347 346 302 219 200 198 195 182 185 185 194 187 189 195 198 202 210 215 221 225 225 225 232 232 232 230 234 239 244 239 250 247 261
325 226 280 353 323 60 58 309 7 11 354 345 344 301 187 205 207 189 198 193 184 189 185 187 192 192 200 206 208 204 206 207 217 220 221 225 231 231 226 246 243 228 215 227
219 253 292 314 262 241 264 292 302 3 356 358 355 333 199 232 206 191 190 185 187 184 188 188 198 203 202 204 194 196 202 212 213 214 221 224 226 215 229 243 232 218 244 259
356 305 276 293 294 255 253 267 263 339 349 357 344 342 197 225 259 224 190 188 188 188 191 192 204 206 208 205 205 204 207 204 207 213 218 232 224 227 234 227 255 270 276 284
250 263 277 288 262 262 249 250 261 253 281 317 344 331 313 262 250 258 202 170 181 188 193 196 190 197 202 203 202 201 201 205 211 220 221 215 214 227 253 271 264 269 278 284
228 279 286 282 306 273 259 261 255 240 244 230 333 325 312 250 251 245 238 215 194 183 182 189 190 199 196 194 196 201 203 210 204 197 200 210 233 246 252 260 259 263 272 281
243 284 290 294 286 270 248 254 271 236 254 235 283 323 303 269 251 233 241 200 190 177 195 199 199 196 197 193 196 207 205 200 198 203 215 238 236 235 250 257 253 257 265 273
279 271 276 274 260 279 272 276 278 286 275 251 222 284 302 264 272 249 236 221 236 218 205 194 207 202 202 198 203 209 204 204 205 204 215 235 240 246 265 282 286 282 283 285
324 287 274 288 292 276 276 264 276 302 293 266 277 296 295 295 302 261 237 237 235 237 218 198 214 212 205 208 206 205 204 200 198 205 221 235 240 252 266 272 280 272 278 290
327 332 328 323 329 300 264 245 250 282 309 259 303 319 301 319 300 278 223 217 205 194 194 234 235 260 206 211 205 202 198 197 205 217 221 236 251 262 262 269 277 272 278 292
325 332 330 307 328 353 265 251 250 284 311 273 312 299 299 318 297 239 233 215 210 204 189 211 236 238 218 217 214 203 199 198 196 200 233 237 242 254 267 278 285 286 290 296
304 294 289 289 312 327 344 302 243 277 285 292 283 244 273 288 267 201 170 168 193 210 223 246 209 218 242 223 225 205 201 198 197 207 223 230 246 260 274 287 294 298 302 303
289 278 272 269 286 302 297 298 239 271 268 280 295 257 286 294 239 214 202 217 236 236 222 193 177 218 252 224 224 205 203 203 205 216 231 240 254 276 288 284 296 306 300 291
279 271 264 259 278 288 290 266 267 264 252 264 258 262 301 294 239 215 209 207 178 156 158 198 210 291 229 208 217 207 206 214 214 222 230 244 254 279 293 288 288 309 298 278
289 277 266 260 268 267 264 279 281 283 244 247 253 245 266 287 247 206 196 200 188 191 197 195 208 211 226 210 208 210 217 219 228 231 232 240 254 279 289 281 287 310 279 254
322 301 277 271 277 260 255 271 271 247 249 266 250 236 253 270 239 211 203 205 201 195 199 184 197 193 203 202 211 212 218 223 225 236 236 234 253 274 286 279 286 305 269 250
324 290 271 259 252 247 263 265 264 253 251 248 244 248 251 283 266 206 203 213 204 185 189 181 175 192 206 202 210 218 220 229 237 228 215 241 264 274 276 280 292 288 274 257
353 328 288 259 245 244 271 279 269 243 240 221 221 237 255 263 252 222 216 221 205 199 203 201 195 208 206 206 211 215 221 204 208 227 257 274 281 280 279 285 280 264 252 264
17 37 55 69 98 131 257 249 218 224 219 230 238 250 244 242 248 242 207 204 179 180 194 200 199 212 212 196 193 184 202 230 253 260 272 286 286 283 283 280 261 259 261 243
15 37 63 68 75 90 69 53 172 255 263 225 224 230 224 243 244 227 188 165 181 191 211 213 191 182 199 207 209 209 215 220 214 259 308 305 293 282 274 258 268 293 257 234
40 47 73 74 57 68 103 101 91 137 128 184 205 183 158 169 194 189 166 183 188 196 203 184 188 197 210 219 199 200 193 203 243 316 358 12 31 6 283 259 243 261 254 218